• In Österreich
  • Länderverzeichnis
  • Für 7 Tage
  • Wassertemperatur
  • Satellitenkarten
  • Wetterkarte
  • News
  • Widgets
  • user-avatar
    Anmelden

    Stündliche Wetter Oaxaca

    Heute, 22 September, Samstag

    Zeit Temperatur Niederschläge Wind Luftdruck Luftfeuchtigkeit
    00:00 +20°C° 1 mm 1 m/S 633 mmHg 94%
    01:00 +19°C° 0.5 mm 1 m/S 633 mmHg 94%
    02:00 +19°C° 0.5 mm 1 m/S 633 mmHg 94%
    03:00 +19°C° 0.5 mm 1 m/S 632 mmHg 94%
    04:00 +19°C° 0.1 mm 1 m/S 632 mmHg 94%
    05:00 +18°C° 0.1 mm 1 m/S 632 mmHg 94%
    06:00 +18°C° 0.1 mm 1 m/S 632 mmHg 94%
    07:00 +20°C° 0 mm 1 m/S 632 mmHg 88%
    08:00 +21°C° 0 mm 1 m/S 633 mmHg 83%
    09:00 +23°C° 0 mm 1 m/S 634 mmHg 78%
    10:00 +24°C° 0.1 mm 2 m/S 634 mmHg 70%
    11:00 +26°C° 0.1 mm 2 m/S 635 mmHg 61%
    12:00 +28°C° 0.1 mm 2 m/S 635 mmHg 53%
    13:00 +28°C° 0.7 mm 2 m/S 634 mmHg 55%
    14:00 +28°C° 0.7 mm 2 m/S 634 mmHg 56%
    15:00 +28°C° 0.7 mm 2 m/S 633 mmHg 58%
    16:00 +26°C° 0.9 mm 2 m/S 633 mmHg 66%
    17:00 +25°C° 0.9 mm 2 m/S 632 mmHg 73%
    18:00 +23°C° 0.9 mm 2 m/S 632 mmHg 81%
    19:00 +21°C° 0.3 mm 2 m/S 632 mmHg 85%
    20:00 +20°C° 0.3 mm 2 m/S 632 mmHg 88%
    21:00 +20°C° 0.3 mm 1 m/S 633 mmHg 92%
    22:00 +20°C° 0.1 mm 1 m/S 633 mmHg 93%
    23:00 +19°C° 0.1 mm 1 m/S 633 mmHg 93%

    Morgen, 23 September, Sonntag

    Zeit Temperatur Niederschläge Wind Luftdruck Luftfeuchtigkeit
    00:00 +18°C° 0.1 mm 2 m/S 633 mmHg 94%
    01:00 +19°C° 0 mm 1 m/S 632 mmHg 93%
    02:00 +18°C° 0 mm 1 m/S 632 mmHg 93%
    03:00 +18°C° 0 mm 1 m/S 631 mmHg 93%
    04:00 +18°C° 0 mm 1 m/S 631 mmHg 92%
    05:00 +16°C° 0 mm 1 m/S 631 mmHg 92%
    06:00 +16°C° 0 mm 1 m/S 631 mmHg 92%
    07:00 +19°C° 0 mm 1 m/S 632 mmHg 86%
    08:00 +19°C° 0 mm 2 m/S 633 mmHg 80%
    09:00 +21°C° 0 mm 2 m/S 634 mmHg 74%
    10:00 +24°C° 0.1 mm 2 m/S 634 mmHg 68%
    11:00 +25°C° 0.1 mm 2 m/S 634 mmHg 62%
    12:00 +27°C° 0.1 mm 2 m/S 634 mmHg 56%
    13:00 +27°C° 0.9 mm 2 m/S 634 mmHg 57%
    14:00 +27°C° 0.9 mm 2 m/S 633 mmHg 58%
    15:00 +27°C° 0.9 mm 2 m/S 632 mmHg 59%
    16:00 +25°C° 0.8 mm 2 m/S 632 mmHg 66%
    17:00 +24°C° 0.8 mm 2 m/S 632 mmHg 73%
    18:00 +21°C° 0.8 mm 2 m/S 631 mmHg 79%
    19:00 +20°C° 0.5 mm 2 m/S 632 mmHg 83%
    20:00 +20°C° 0.5 mm 1 m/S 632 mmHg 86%
    21:00 +19°C° 0.5 mm 1 m/S 633 mmHg 89%
    22:00 +19°C° 0.1 mm 1 m/S 633 mmHg 90%
    23:00 +19°C° 0.1 mm 1 m/S 633 mmHg 90%

    übermorgen, 24 September, Montag

    Zeit Temperatur Niederschläge Wind Luftdruck Luftfeuchtigkeit
    00:00 +18°C° 0.1 mm 1 m/S 633 mmHg 91%
    01:00 +18°C° 0 mm 1 m/S 632 mmHg 91%
    02:00 +18°C° 0 mm 1 m/S 632 mmHg 91%
    03:00 +18°C° 0 mm 1 m/S 631 mmHg 90%
    04:00 +16°C° 0 mm 1 m/S 631 mmHg 90%
    05:00 +16°C° 0 mm 1 m/S 631 mmHg 90%
    06:00 +16°C° 0 mm 1 m/S 631 mmHg 90%
    07:00 +19°C° 0 mm 1 m/S 632 mmHg 84%
    08:00 +21°C° 0 mm 1 m/S 633 mmHg 77%
    09:00 +22°C° 0 mm 1 m/S 634 mmHg 70%
    10:00 +24°C° 0.1 mm 2 m/S 634 mmHg 65%
    11:00 +25°C° 0.1 mm 2 m/S 634 mmHg 60%
    12:00 +27°C° 0.1 mm 2 m/S 635 mmHg 55%
    13:00 +26°C° 1.3 mm 2 m/S 634 mmHg 59%
    14:00 +26°C° 1.3 mm 2 m/S 633 mmHg 63%
    15:00 +26°C° 1.3 mm 2 m/S 632 mmHg 67%
    16:00 +24°C° 1.4 mm 2 m/S 632 mmHg 72%
    17:00 +23°C° 1.4 mm 2 m/S 632 mmHg 78%
    18:00 +21°C° 1.4 mm 2 m/S 632 mmHg 83%
    19:00 +20°C° 0.6 mm 2 m/S 632 mmHg 86%
    20:00 +20°C° 0.6 mm 1 m/S 633 mmHg 89%
    21:00 +19°C° 0.6 mm 1 m/S 633 mmHg 92%
    22:00 +19°C° 0.1 mm 1 m/S 633 mmHg 93%
    23:00 +18°C° 0.1 mm 1 m/S 633 mmHg 94%

    25 September, Dienstag

    Zeit Temperatur Niederschläge Wind Luftdruck Luftfeuchtigkeit
    00:00 +18°C° 0.1 mm 1 m/S 633 mmHg 95%
    01:00 +18°C° 0 mm 1 m/S 632 mmHg 94%
    02:00 +16°C° 0 mm 1 m/S 632 mmHg 93%
    03:00 +16°C° 0 mm 1 m/S 631 mmHg 93%
    04:00 +16°C° 0 mm 1 m/S 631 mmHg 92%
    05:00 +16°C° 0 mm 1 m/S 631 mmHg 92%
    06:00 +15°C° 0 mm 1 m/S 631 mmHg 91%
    07:00 +18°C° 0 mm 1 m/S 632 mmHg 85%
    08:00 +20°C° 0 mm 1 m/S 633 mmHg 78%
    09:00 +22°C° 0 mm 1 m/S 634 mmHg 72%
    10:00 +23°C° 0.2 mm 1 m/S 634 mmHg 68%
    11:00 +25°C° 0.2 mm 1 m/S 634 mmHg 64%
    12:00 +26°C° 0.2 mm 2 m/S 634 mmHg 60%
    13:00 +26°C° 1.2 mm 2 m/S 634 mmHg 62%
    14:00 +25°C° 1.2 mm 2 m/S 633 mmHg 65%
    15:00 +25°C° 1.2 mm 2 m/S 632 mmHg 68%
    16:00 +24°C° 1.2 mm 2 m/S 632 mmHg 73%
    17:00 +23°C° 1.2 mm 2 m/S 632 mmHg 79%
    18:00 +22°C° 1.2 mm 1 m/S 632 mmHg 84%
    19:00 +21°C° 0.7 mm 1 m/S 632 mmHg 87%
    20:00 +20°C° 0.7 mm 1 m/S 633 mmHg 90%
    21:00 +19°C° 0.7 mm 1 m/S 633 mmHg 93%
    22:00 +19°C° 0.3 mm 1 m/S 633 mmHg 93%
    23:00 +19°C° 0.3 mm 1 m/S 633 mmHg 94%

    26 September, Mittwoch

    Zeit Temperatur Niederschläge Wind Luftdruck Luftfeuchtigkeit
    00:00 +18°C° 0.3 mm 1 m/S 633 mmHg 94%
    01:00 +18°C° 0.1 mm 1 m/S 632 mmHg 94%
    02:00 +18°C° 0.1 mm 1 m/S 632 mmHg 94%
    03:00 +18°C° 0.1 mm 1 m/S 631 mmHg 94%
    04:00 +16°C° 0 mm 1 m/S 631 mmHg 94%
    05:00 +16°C° 0 mm 1 m/S 631 mmHg 93%
    06:00 +16°C° 0 mm 1 m/S 631 mmHg 93%
    07:00 +19°C° 0 mm 1 m/S 632 mmHg 87%
    08:00 +20°C° 0 mm 1 m/S 633 mmHg 81%
    09:00 +22°C° 0 mm 1 m/S 634 mmHg 75%
    10:00 +23°C° 0.2 mm 1 m/S 634 mmHg 71%
    11:00 +24°C° 0.2 mm 1 m/S 634 mmHg 67%
    12:00 +26°C° 0.2 mm 1 m/S 634 mmHg 63%
    13:00 +25°C° 0.9 mm 1 m/S 633 mmHg 65%
    14:00 +25°C° 0.9 mm 1 m/S 632 mmHg 66%
    15:00 +25°C° 0.9 mm 2 m/S 632 mmHg 68%
    16:00 +24°C° 0.7 mm 1 m/S 632 mmHg 73%
    17:00 +23°C° 0.7 mm 1 m/S 632 mmHg 78%
    18:00 +22°C° 0.7 mm 1 m/S 631 mmHg 83%
    19:00 +22°C° 0.3 mm 1 m/S 632 mmHg 85%
    20:00 +21°C° 0.3 mm 1 m/S 632 mmHg 88%
    21:00 +20°C° 0.3 mm 1 m/S 633 mmHg 90%
    22:00 +20°C° 0.2 mm 1 m/S 632 mmHg 92%
    23:00 +20°C° 0.2 mm 1 m/S 632 mmHg 93%

    27 September, Donnerstag

    Zeit Temperatur Niederschläge Wind Luftdruck Luftfeuchtigkeit
    00:00 +20°C° 0.2 mm 1 m/S 632 mmHg 94%
    01:00 +19°C° 0 mm 1 m/S 632 mmHg 94%
    02:00 +19°C° 0 mm 1 m/S 631 mmHg 95%
    03:00 +19°C° 0 mm 1 m/S 631 mmHg 95%
    04:00 +18°C° 0 mm 1 m/S 631 mmHg 95%
    05:00 +18°C° 0 mm 1 m/S 631 mmHg 95%
    06:00 +18°C° 0 mm 1 m/S 631 mmHg 95%
    07:00 +19°C° 0 mm 1 m/S 632 mmHg 89%
    08:00 +21°C° 0 mm 1 m/S 633 mmHg 83%
    09:00 +21°C° 0 mm 2 m/S 634 mmHg 77%
    10:00 +23°C° 0.2 mm 2 m/S 634 mmHg 72%
    11:00 +25°C° 0.2 mm 2 m/S 634 mmHg 68%
    12:00 +26°C° 0.2 mm 2 m/S 634 mmHg 63%
    13:00 +26°C° 1.7 mm 2 m/S 633 mmHg 66%
    14:00 +25°C° 1.7 mm 2 m/S 632 mmHg 69%
    15:00 +25°C° 1.7 mm 3 m/S 632 mmHg 72%
    16:00 +24°C° 1.5 mm 2 m/S 632 mmHg 77%
    17:00 +23°C° 1.5 mm 2 m/S 632 mmHg 81%
    18:00 +21°C° 1.5 mm 2 m/S 632 mmHg 86%
    19:00 +20°C° 0.6 mm 2 m/S 632 mmHg 88%
    20:00 +20°C° 0.6 mm 2 m/S 633 mmHg 90%
    21:00 +19°C° 0.6 mm 2 m/S 633 mmHg 93%
    22:00 +18°C° 0.1 mm 2 m/S 633 mmHg 93%
    23:00 +19°C° 0.1 mm 1 m/S 633 mmHg 93%
    Mehr zeigen